Date,TemperatureHighF,TemperatureAvgF,TemperatureLowF,DewpointHighF,DewpointAvgF,DewpointLowF,HumidityHigh,HumidityAvg,HumidityLow,PressureMaxIn,PressureMinIn,WindSpeedMaxMPH,WindSpeedAvgMPH,GustSpeedMaxMPH,PrecipitationSumIn
2013-3-1,42.3,37.6,29.5,37.0,30.6,27.8,99,77,59,29.65,29.46,8,2,13,0.00
2013-3-2,49.3,38.1,30.9,30.9,27.2,24.3,81,65,47,29.63,29.57,9,2,14,0.00
2013-3-3,43.9,36.0,30.6,33.3,28.3,25.2,89,74,62,29.60,29.50,11,3,19,0.00
2013-3-4,41.7,34.6,30.0,28.9,23.9,20.3,85,65,44,29.71,29.51,15,5,25,0.00
2013-3-5,52.3,37.1,30.4,34.9,26.8,22.1,97,68,36,30.03,29.71,14,2,24,0.00
2013-3-6,39.4,35.7,32.0,37.3,34.4,29.9,99,95,73,30.09,29.96,16,5,27,0.14
2013-3-7,35.1,32.5,30.4,33.7,31.6,26.9,99,96,75,30.05,29.56,12,2,25,0.44
2013-3-8,42.4,34.3,29.5,35.7,28.2,20.8,99,81,45,30.03,29.85,10,3,18,0.05
2013-3-9,55.2,39.1,25.7,29.2,22.1,8.2,99,56,16,30.25,30.00,9,2,15,0.00
2013-3-10,53.6,36.6,22.1,35.8,29.0,21.9,99,78,39,30.34,30.16,7,1,13,0.00
2013-3-11,56.1,42.8,31.5,40.7,35.0,30.9,99,78,40,30.20,29.98,6,1,11,0.00
2013-3-12,56.3,48.5,38.5,53.2,47.9,38.0,99,98,84,30.05,29.59,7,1,14,0.31
2013-3-13,56.1,45.5,34.7,51.5,29.3,11.9,99,59,19,29.68,29.55,9,3,19,0.00
2013-3-14,41.4,31.6,21.9,24.8,13.8,-18.0,79,49,10,29.74,29.60,16,4,24,1.61
2013-3-15,45.9,30.6,0.0,29.9,9.5,-10.0,88,46,10,29.87,29.63,13,4,26,0.00
2013-3-16,46.2,34.1,26.8,26.6,11.1,-4.8,75,42,12,29.88,29.65,11,2,19,0.00
2013-3-17,41.4,30.3,20.3,17.0,5.0,-13.0,80,40,10,30.30,29.86,14,3,21,0.00
2013-3-18,46.0,30.0,15.1,28.7,2.4,-13.7,99,37,10,30.54,30.25,8,2,12,0.00
2013-3-19,34.2,31.2,25.5,33.9,31.0,25.3,99,99,99,30.25,29.65,11,2,23,0.01
2013-3-20,41.9,31.2,24.3,25.8,23.3,18.0,99,75,41,29.83,29.70,13,2,31,0.19
2013-3-21,49.5,31.6,19.9,28.7,19.6,6.6,99,68,20,29.81,29.60,8,1,11,0.01
2013-3-22,46.9,34.8,26.6,27.1,19.1,10.2,99,56,25,29.75,29.61,10,3,18,0.00
2013-3-23,47.3,35.9,25.3,24.0,18.1,11.0,82,51,24,29.79,29.62,20,4,30,0.00
2013-3-24,52.5,40.4,32.0,28.3,22.1,18.1,77,50,26,29.81,29.69,11,3,21,0.00
2013-3-25,44.6,36.1,28.0,33.1,27.8,-99.9,86,73,62,29.93,29.54,30,-2,30,0.00
2013-3-26,52.2,41.1,33.6,26.1,22.3,17.6,71,49,26,30.07,29.91,11,4,0,0.00
2013-3-27,55.6,42.8,28.6,31.8,23.6,20.0,76,49,29,30.10,29.98,16,5,0,0.00
2013-3-28,50.5,42.1,35.1,34.5,31.6,27.2,94,68,42,30.16,30.08,8,3,0,0.00
2013-3-29,57.9,45.4,32.5,35.2,30.7,27.0,87,58,33,30.17,30.07,8,3,0,0.00
2013-3-30,58.1,45.1,32.0,31.8,23.2,14.1,79,47,20,30.14,30.03,12,3,0,0.00
2013-3-31,62.1,43.9,23.7,38.9,25.6,19.7,93,55,21,30.16,29.77,13,3,0,0.02